User: anonymous   Login
Location: Bosdarros
(43.2167°N, 0.3667°W)
Time: 05:35:55
(UTC+00:00)
Language:

FENGYUN 1C DEB - Orbit

View from above orbital plane
View from above orbital plane
View from above satellite
View from above satellite

Ground track
Ground track

The orbit data is extracted from the following two-line orbital elements,

1 31014U 99025BDG 21290.54433441 -.00000211  00000-0 -11608-3 0  9991
2 31014  98.7920 306.4904 0090175  77.4011  85.9995 13.97654728746378
Epoch (UTC): 17 October 2021 13:03:50
Eccentricity: 0.0090175
inclination: 98.7920°
perigee height: 836 km
apogee height: 967 km
right ascension of ascending node: 306.4904°
argument of perigee: 77.4011°
revolutions per day: 13.97654728
mean anomaly at epoch: 85.9995°
orbit number at epoch: 74637

The dashed part of the orbit path shows where the satellite is in the earth's shadow,  

DLR